Regional Weather Roundup
Issued by NWS

Home | Current Version | Previous Version | Graphics & Text | Print | Product List | Glossary On
Versions: 1 2 3 4 5 6 7 8 9 10 11 12 13 14 15 16 17 18 19 20 21 22 23 24 25 26 27 28 29 30 31 32 33 34 35 36 37 38 39 40 41 42 43 44 45 46 47 48 49 50
000
ASUS45 KABQ 241601
RWRNM
NEW MEXICO REGIONAL WEATHER ROUNDUP
NATIONAL WEATHER SERVICE ALBUQUERQUE NM
900 AM MST FRI FEB 24 2017

NOTE: "FAIR" MEANS FEW OR NO CLOUDS BELOW 12,000 FEET AGL WITH NO
       SIGNIFICANT WEATHER OR OBSTRUCTIONS TO VISION.

      THIS PRODUCT IS RELEASED AS TWO VERSIONS.  ONE VERSION NEAR
      THE TOP OF THE HOUR CONTAINING PRELIMINARY DATA FROM ALBUQUERQUE
      AND OTHER STATIONS.  A FINAL VERSION WITH ADDITIONAL DATA IS
      ISSUED ABOUT 10 MINUTES AFTER THE HOUR.

NMZ501-503-504-510>518-241700-
NORTHWEST PLATEAU/NORTHCENTRAL MOUNTAINS

CITY           SKY/WX    TMP DP  RH WIND       PRES   REMARKS
FARMINGTON     FAIR      31   8  38 W13       29.93R WCI  21
LOS ALAMOS     FAIR      27   3  35 W16G29    29.90S WCI  14
SANTA FE       FAIR      33   7  33 W14       29.91S WCI  23
TAOS           FAIR      28   3  34 W22G30    29.86S WCI  15
ANGEL FIRE     CLOUDY    18   7  62 W9        29.82S WCI   6

$$
NMZ402-403-502-505>509-241700-
WESTCENTRAL MOUNTAINS/SOUTHWEST MOUNTAINS

CITY           SKY/WX    TMP DP  RH WIND       PRES   REMARKS
GALLUP         FAIR      29   8  41 SW14      29.98R WCI  18
GRANTS         FAIR      31   3  31 NW17G25   29.98S WCI  19
SILVER CITY    FAIR      37  11  34 NW13      30.04R WCI  29

$$
NMZ407-409-411-412-241700-
SOUTHERN DESERTS

CITY           SKY/WX    TMP DP  RH WIND       PRES   REMARKS
DEMING         FAIR      42  16  34 W12       30.05R
LAS CRUCES     FAIR      44  13  29 W14       30.03S
HOLLOMAN AFB   FAIR      46  11  24 W7        30.04R
ALAMOGORDO     FAIR      45  10  24 CALM      30.02R
T OR C         FAIR      42   9  25 N7        29.99R

$$
NMZ519>523-241700-
CENTRAL VALLEYS/CENTRAL HIGHLANDS

CITY           SKY/WX    TMP DP  RH WIND       PRES   REMARKS
ALBUQUERQUE    FAIR      36   3  25 W21G29    29.97R WCI  25
DOUBLE EAGLE   MOSUNNY   34   5  29 W17G23    29.96S WCI  23
MORIARTY ARPT  FAIR      35  11  36 W17G25    29.94S WCI  25
CLINES CORNERS FAIR      29   9  43 W21G35    29.89R WCI  16
BELEN          FAIR      38   9  29 W9        29.99S WCI  32
SOCORRO        FAIR      40  12  32 NW14G28   29.98S WCI  32

$$
NMZ524>526-539-540-241700-
SOUTHCENTRAL MOUNTAINS

CITY           SKY/WX    TMP DP  RH WIND       PRES   REMARKS
RUIDOSO        NOT AVBL

$$
NMZ527>531-241700-
NORTHEAST HIGHLANDS/NORTHEAST PLAINS

CITY           SKY/WX    TMP DP  RH WIND       PRES   REMARKS
LAS VEGAS      FAIR      32   2  27 W21G36    29.84S WCI  20
RATON          FAIR      29  11  47 NE7       29.82  WCI  22
CLAYTON        FAIR      29  18  63 N16       29.90R WCI  17

$$
NMZ532>537-241700-
EASTCENTRAL PLAINS

CITY           SKY/WX    TMP DP  RH WIND       PRES   REMARKS
TUCUMCARI      FAIR      34  22  61 SE12      29.94R WCI  25
CANNON AFB     FAIR      34  28  79 VRB5      29.95R WCI  30
CLOVIS AIRPORT FAIR      34  21  60 NE7       29.96R WCI  28

$$
NMZ028-029-538-241700-
SOUTHEAST PLAINS

CITY           SKY/WX    TMP DP  RH WIND       PRES   REMARKS
ROSWELL        FAIR      51   9  18 NW15      29.98R
ARTESIA        FAIR      46   9  21 CALM      29.97S
CARLSBAD       FAIR      57   6  13 W29G36    29.94R
HOBBS          SUNNY     45  16  31 N6        29.98R


$$



USA.gov is the U.S. government's official web portal to all federal, state and local government web resources and services.